Weather History for Kimball, NE

Change the Weather History Date:

Wednesday, February 13, 2013

  Actual Average (KSNY) Record (KSNY)
Temperature  
Mean Temperature 32 °F 31 °F  
Max Temperature 45 °F 44 °F 68 °F (1954)
Min Temperature 20 °F 18 °F -12 °F (1948)
Degree Days  
Heating Degree Days 32 34  
Month to date heating degree days 450  
Since 1 July heating degree days 4107  
Cooling Degree Days 0 0  
Month to date cooling degree days 0  
Year to date cooling degree days 0  
Moisture  
Dew Point 19 °F    
Average Humidity 58    
Maximum Humidity 90    
Minimum Humidity 38    
Precipitation  
Precipitation 0.00 in 0.01 in 0.27 in (1978)
Month to date precipitation 0.11  
Year to date precipitation 0.31  
Sea Level Pressure  
Sea Level Pressure 29.91 in    
Wind  
Wind Speed 18 mph (WNW)    
Max Wind Speed 36 mph    
Max Gust Speed 51 mph    
Visibility 10 miles    
Events Snow    
T = Trace of Precipitation, MM = Missing Value Source: NWS Daily Summary

Daily Weather History Graph

Daily Weather History Graph

Search for Another Location

Airport:

Trip Planner

Search our weather history database for the weather conditions in past years. The results will help you decide how hot, cold, wet, or windy it might be!

Date:

Astronomy

Feb. 13, 2013 Rise Set
Actual Time 7:51 AM CST 6:26 PM CST
Civil Twilight 7:23 AM CST 6:55 PM CST
Nautical Twilight 6:50 AM CST 7:27 PM CST
Astronomical Twilight 6:18 AM CST 7:59 PM CST
Moon 9:19 AM CST (2/13) 10:35 PM CST (2/13)
Length of Visible Light 11h 31m
Length of Day
10h 35m
Waxing Crescent, 14% of the Moon is Illuminated
Feb 13
Waxing Crescent
Feb 17
First Quarter
Feb 25
Full
Mar 4
Last Quarter
Mar 11
New

Hourly Weather History & Observations

Time (CST) Temp. Windchill Dew Point Humidity Pressure Visibility Wind Dir Wind Speed Gust Speed Precip Events Conditions
12:15 AM 26.2 °F 14.7 °F 14.9 °F 62% 29.97 in 10.0 mi WNW 13.8 mph - N/A   Overcast
12:35 AM 27.3 °F 15.6 °F 14.7 °F 59% 29.98 in 10.0 mi West 15.0 mph - N/A   Overcast
12:55 AM 27.1 °F 14.5 °F 13.3 °F 56% 29.97 in 10.0 mi West 17.3 mph - N/A   Overcast
1:15 AM 27.5 °F 16.8 °F 13.5 °F 56% 29.96 in 10.0 mi West 12.7 mph - N/A   Overcast
1:35 AM 26.8 °F 15.4 °F 12.7 °F 56% 29.95 in 10.0 mi West 13.8 mph - N/A   Mostly Cloudy
1:55 AM 26.2 °F 15.8 °F 13.6 °F 59% 29.94 in 10.0 mi West 11.5 mph - N/A   Scattered Clouds
2:15 AM 25.9 °F 17.4 °F 13.8 °F 60% 29.94 in 10.0 mi West 8.1 mph - N/A   Scattered Clouds
2:35 AM 26.1 °F 16.8 °F 14.9 °F 63% 29.94 in 10.0 mi West 9.2 mph - N/A   Scattered Clouds
2:55 AM 27.5 °F 15.0 °F 15.3 °F 60% 29.93 in 10.0 mi West 17.3 mph - N/A   Clear
3:15 AM 26.4 °F 14.0 °F 14.0 °F 59% 29.92 in 10.0 mi West 16.1 mph - N/A   Clear
3:35 AM 24.6 °F 12.7 °F 13.6 °F 63% 29.92 in 10.0 mi West 13.8 mph - N/A   Clear
3:55 AM 23.4 °F 11.6 °F 13.5 °F 66% 29.91 in 10.0 mi WNW 12.7 mph - N/A   Clear
4:15 AM 23.2 °F 12.0 °F 13.5 °F 66% 29.91 in 10.0 mi West 11.5 mph - N/A   Clear
4:35 AM 21.4 °F 10.4 °F 12.4 °F 68% 29.91 in 10.0 mi West 10.4 mph - N/A   Clear
4:55 AM 20.7 °F 7.6 °F 12.2 °F 70% 29.90 in 10.0 mi West 13.8 mph - N/A   Clear
5:15 AM 23.0 °F 11.1 °F 12.9 °F 65% 29.89 in 10.0 mi West 12.7 mph - N/A   Clear
5:35 AM 22.3 °F 10.8 °F 12.6 °F 66% 29.89 in 10.0 mi West 11.5 mph - N/A   Clear
5:55 AM 21.9 °F 10.4 °F 12.7 °F 68% 29.88 in 10.0 mi West 11.5 mph - N/A   Clear
6:15 AM 21.2 °F 10.9 °F 12.7 °F 70% 29.88 in 10.0 mi West 9.2 mph - N/A   Clear
6:35 AM 21.9 °F 8.7 °F 13.5 °F 70% 29.88 in 10.0 mi West 15.0 mph - N/A   Clear
6:55 AM 22.3 °F 10.2 °F 14.0 °F 71% 29.89 in 10.0 mi WNW 12.7 mph - N/A   Clear
7:15 AM 24.6 °F 11.3 °F 14.9 °F 67% 29.88 in 10.0 mi WNW 17.3 mph - N/A   Clear
7:35 AM 23.5 °F 10.8 °F 14.5 °F 69% 29.88 in 10.0 mi WNW 15.0 mph - N/A   Clear
7:55 AM 23.2 °F 12.0 °F 14.5 °F 70% 29.89 in 10.0 mi West 11.5 mph - N/A   Clear
8:15 AM 23.2 °F 11.4 °F 14.9 °F 71% 29.88 in 10.0 mi WNW 12.7 mph - N/A   Clear
8:35 AM 25.5 °F 15.5 °F 15.8 °F 67% 29.89 in 10.0 mi WNW 10.4 mph - N/A   Clear
8:55 AM 27.1 °F 17.5 °F 16.3 °F 64% 29.89 in 10.0 mi NW 10.4 mph - N/A   Clear
9:15 AM 30.9 °F 20.2 °F 17.6 °F 58% 29.89 in 10.0 mi WNW 15.0 mph - N/A   Clear
9:35 AM 33.8 °F 22.5 °F 17.6 °F 52% 29.88 in 10.0 mi West 19.6 mph - N/A   Clear
9:55 AM 32.9 °F 21.6 °F 17.8 °F 54% 29.89 in 10.0 mi West 18.4 mph 24.2 mph N/A   Clear
10:15 AM 33.8 °F 21.9 °F 17.4 °F 51% 29.89 in 10.0 mi WNW 21.9 mph 28.8 mph N/A   Clear
10:35 AM 36.1 °F 24.4 °F 17.4 °F 47% 29.90 in 10.0 mi WNW 24.2 mph 29.9 mph N/A   Clear
10:55 AM 38.5 °F 26.9 °F 18.0 °F 44% 29.90 in 10.0 mi WNW 27.6 mph 36.8 mph N/A   Clear
11:15 AM 39.4 °F 27.3 °F 19.0 °F 44% 29.90 in 10.0 mi WNW 32.2 mph 42.6 mph N/A   Clear
11:35 AM 40.1 °F 28.8 °F 20.3 °F 45% 29.90 in 10.0 mi WNW 28.8 mph 35.7 mph N/A   Clear
11:55 AM 40.1 °F 28.6 °F 20.8 °F 46% 29.90 in 10.0 mi WNW 29.9 mph 41.4 mph N/A   Clear
12:15 PM 41.2 °F 30.3 °F 21.4 °F 45% 29.90 in 10.0 mi WNW 28.8 mph 42.6 mph N/A   Clear
12:35 PM 42.6 °F 31.9 °F 21.2 °F 43% 29.90 in 10.0 mi WNW 31.1 mph 44.9 mph N/A   Clear
12:55 PM 43.2 °F 31.9 °F 21.2 °F 42% 29.89 in 10.0 mi WNW 35.7 mph 47.2 mph N/A   Clear
1:15 PM 43.0 °F 31.8 °F 20.8 °F 41% 29.89 in 10.0 mi WNW 34.5 mph 50.6 mph N/A   Clear
1:35 PM 44.1 °F 33.7 °F 21.4 °F 41% 29.87 in 10.0 mi WNW 32.2 mph 42.6 mph N/A   Clear
1:55 PM 44.8 °F 34.5 °F 21.4 °F 40% 29.86 in 10.0 mi WNW 33.4 mph 43.7 mph N/A   Clear
2:15 PM 44.6 °F 34.1 °F 20.5 °F 38% 29.86 in 10.0 mi WNW 34.5 mph 43.7 mph N/A   Clear
2:35 PM 45.0 °F 35.2 °F 20.5 °F 38% 29.85 in 10.0 mi WNW 29.9 mph 40.3 mph N/A   Clear
2:55 PM 45.1 °F 35.1 °F 20.8 °F 38% 29.85 in 10.0 mi WNW 32.2 mph 42.6 mph N/A   Clear
3:15 PM 44.8 °F 34.6 °F 21.7 °F 40% 29.85 in 10.0 mi WNW 32.2 mph 39.1 mph N/A   Clear
3:35 PM 44.6 °F 34.9 °F 21.4 °F 40% 29.85 in 10.0 mi WNW 28.8 mph 38.0 mph N/A   Clear
3:55 PM 44.4 °F 34.5 °F 22.1 °F 41% 29.86 in 10.0 mi WNW 29.9 mph 40.3 mph N/A   Clear
4:15 PM 43.7 °F 33.9 °F 21.6 °F 41% 29.86 in 10.0 mi NW 27.6 mph 40.3 mph N/A   Clear
4:35 PM 43.0 °F 32.7 °F 21.4 °F 42% 29.87 in 10.0 mi WNW 28.8 mph 39.1 mph N/A   Clear
4:55 PM 42.6 °F 33.1 °F 21.9 °F 44% 29.87 in 10.0 mi WNW 24.2 mph 32.2 mph N/A   Clear
5:15 PM 41.9 °F 32.1 °F 21.7 °F 45% 29.86 in 10.0 mi WNW 24.2 mph 34.5 mph N/A   Clear
5:35 PM 41.0 °F 29.8 °F 22.1 °F 47% 29.87 in 10.0 mi WNW 29.9 mph 35.7 mph N/A   Clear
5:55 PM 39.9 °F 29.7 °F 21.7 °F 48% 29.88 in 10.0 mi WNW 23.0 mph 32.2 mph N/A   Clear
6:15 PM 38.7 °F 28.8 °F 21.2 °F 50% 29.89 in 10.0 mi WNW 19.6 mph 27.6 mph N/A   Scattered Clouds
6:35 PM 37.4 °F 26.9 °F 21.2 °F 52% 29.88 in 10.0 mi WNW 20.7 mph 27.6 mph N/A   Scattered Clouds
6:55 PM 36.7 °F 24.9 °F 21.2 °F 54% 29.87 in 10.0 mi WNW 25.3 mph 34.5 mph N/A   Clear
7:15 PM 36.3 °F 25.2 °F 21.6 °F 55% 29.88 in 10.0 mi WNW 21.9 mph 33.4 mph N/A   Clear
7:35 PM 36.0 °F 24.7 °F 21.7 °F 56% 29.89 in 10.0 mi WNW 21.9 mph 28.8 mph N/A   Clear
7:55 PM 35.6 °F 24.0 °F 22.1 °F 58% 29.90 in 10.0 mi WNW 23.0 mph 31.1 mph N/A   Clear
8:15 PM 35.6 °F 23.7 °F 22.6 °F 59% 29.91 in 10.0 mi NW 24.2 mph 31.1 mph N/A   Clear
8:35 PM 34.7 °F 24.0 °F 23.0 °F 62% 29.93 in 10.0 mi NW 18.4 mph 24.2 mph N/A   Clear
8:55 PM 34.2 °F 23.6 °F 23.4 °F 65% 29.94 in 10.0 mi NNW 17.3 mph 23.0 mph N/A   Clear
9:15 PM 32.4 °F 23.5 °F 23.9 °F 71% 29.95 in 10.0 mi NNW 11.5 mph - N/A   Clear
9:35 PM 32.7 °F 23.0 °F 28.4 °F 84% 29.95 in 10.0 mi North 13.8 mph 23.0 mph N/A   Scattered Clouds
9:55 PM 32.7 °F 22.1 °F 30.2 °F 90% 29.96 in 10.0 mi North 16.1 mph 19.6 mph N/A   Mostly Cloudy
10:15 PM 32.9 °F 23.2 °F 29.7 °F 88% 29.98 in 5.0 mi NNW 13.8 mph - N/A Snow Light Snow
10:35 PM 32.4 °F 24.0 °F 28.4 °F 85% 29.98 in 10.0 mi NW 10.4 mph - N/A   Overcast
10:55 PM 32.5 °F 24.2 °F 28.4 °F 85% 29.98 in 10.0 mi NW 10.4 mph - N/A   Overcast
11:15 PM 32.7 °F 23.9 °F 28.4 °F 84% 29.99 in 10.0 mi NW 11.5 mph - N/A   Overcast
11:35 PM 32.9 °F 22.4 °F 27.3 °F 80% 29.99 in 10.0 mi NNW 16.1 mph - N/A   Overcast
11:55 PM 32.0 °F 21.2 °F 25.9 °F 78% 29.98 in 10.0 mi NNW 16.1 mph - N/A   Mostly Cloudy